TimeEST,TemperatureF,Dew PointF,Humidity,Sea Level PressureIn,VisibilityMPH,Wind Direction,Wind SpeedMPH,Gust SpeedMPH,PrecipitationIn,Events,Conditions,WindDirDegrees,DateUTC
12:53 AM,72.0,70.0,93,30.01,9.0,Calm,Calm,-,N/A,,Partly Cloudy,0,2012-12-09 05:53:00
1:11 AM,71.6,69.8,94,30.01,1.5,Calm,Calm,-,N/A,,Scattered Clouds,0,2012-12-09 06:11:00
1:30 AM,71.6,69.8,94,30.01,3.0,NNE,3.5,-,N/A,,Partly Cloudy,20,2012-12-09 06:30:00
1:53 AM,73.0,71.1,93,30.00,9.0,North,3.5,-,N/A,,Mostly Cloudy,10,2012-12-09 06:53:00
2:53 AM,73.0,71.1,93,29.99,8.0,Calm,Calm,-,0.01,,Partly Cloudy,0,2012-12-09 07:53:00
3:53 AM,73.0,71.1,93,29.99,7.0,NNE,3.5,-,N/A,,Clear,30,2012-12-09 08:53:00
4:53 AM,72.0,70.0,93,30.00,9.0,NNE,4.6,-,N/A,,Clear,20,2012-12-09 09:53:00
5:18 AM,73.4,71.6,94,30.01,10.0,NNE,4.6,-,N/A,,Scattered Clouds,20,2012-12-09 10:18:00
5:28 AM,73.4,71.6,94,30.01,10.0,NNE,4.6,-,N/A,,Mostly Cloudy,20,2012-12-09 10:28:00
5:53 AM,73.0,71.1,93,30.02,10.0,North,5.8,-,N/A,,Mostly Cloudy,10,2012-12-09 10:53:00
6:08 AM,73.4,71.6,94,30.02,10.0,NE,5.8,-,N/A,,Mostly Cloudy,40,2012-12-09 11:08:00
6:36 AM,73.4,71.6,94,30.03,0.5,NE,5.8,-,N/A,Fog,Fog,40,2012-12-09 11:36:00
6:53 AM,73.0,71.1,93,30.03,0.5,NE,4.6,-,N/A,Fog,Fog,50,2012-12-09 11:53:00
6:57 AM,73.4,71.6,94,30.04,0.2,NE,5.8,-,N/A,Fog,Fog,40,2012-12-09 11:57:00
7:07 AM,73.4,71.6,94,30.04,0.2,NNE,5.8,-,N/A,Fog,Fog,20,2012-12-09 12:07:00
7:53 AM,73.0,71.1,93,30.05,0.2,NE,4.6,-,N/A,Fog,Fog,40,2012-12-09 12:53:00
8:53 AM,73.9,72.0,93,30.06,0.2,NE,4.6,-,N/A,Fog,Fog,40,2012-12-09 13:53:00
9:06 AM,75.2,73.4,94,30.07,0.8,ENE,3.5,-,N/A,,Mist,60,2012-12-09 14:06:00
9:15 AM,75.2,73.4,94,30.07,7.0,Calm,Calm,-,N/A,,Mostly Cloudy,0,2012-12-09 14:15:00
9:53 AM,79.0,73.9,84,30.08,10.0,ENE,3.5,-,N/A,,Mostly Cloudy,70,2012-12-09 14:53:00
10:53 AM,82.0,73.0,74,30.07,10.0,Variable,4.6,-,N/A,,Mostly Cloudy,0,2012-12-09 15:53:00
11:53 AM,80.1,73.0,79,30.05,10.0,NE,5.8,-,N/A,,Mostly Cloudy,40,2012-12-09 16:53:00
12:53 PM,81.0,73.0,77,30.02,10.0,NNE,6.9,-,N/A,,Mostly Cloudy,20,2012-12-09 17:53:00
1:53 PM,80.1,73.0,79,30.00,10.0,North,8.1,-,N/A,,Mostly Cloudy,10,2012-12-09 18:53:00
2:53 PM,81.0,73.0,77,29.99,10.0,NNE,5.8,-,N/A,,Mostly Cloudy,30,2012-12-09 19:53:00
3:53 PM,79.0,73.0,82,29.99,10.0,North,8.1,-,N/A,,Mostly Cloudy,10,2012-12-09 20:53:00
4:53 PM,79.0,73.9,84,29.99,10.0,NNE,4.6,-,N/A,,Mostly Cloudy,30,2012-12-09 21:53:00
5:53 PM,78.1,73.0,84,30.00,10.0,East,8.1,-,N/A,,Partly Cloudy,80,2012-12-09 22:53:00
6:53 PM,77.0,73.9,90,30.01,10.0,East,6.9,-,N/A,,Partly Cloudy,80,2012-12-09 23:53:00
7:53 PM,77.0,73.9,90,30.02,10.0,ENE,3.5,-,N/A,,Partly Cloudy,60,2012-12-10 00:53:00
8:53 PM,77.0,73.0,88,30.02,10.0,ENE,6.9,-,N/A,,Partly Cloudy,70,2012-12-10 01:53:00
9:53 PM,77.0,73.9,90,30.03,10.0,East,4.6,-,N/A,,Mostly Cloudy,80,2012-12-10 02:53:00
10:53 PM,77.0,73.9,90,30.03,10.0,East,6.9,-,N/A,,Scattered Clouds,80,2012-12-10 03:53:00
11:53 PM,77.0,73.9,90,30.02,10.0,East,6.9,-,N/A,,Mostly Cloudy,100,2012-12-10 04:53:00